Hourly Weather Holubychi

Today, 17 April, Saturday

Time Temperature Precipitation Wind Pressure Humidity
00:00 +6°C° 0 mm 2 mps 747 mmHg 93%
01:00 +5°C° 0 mm 2 mps 747 mmHg 94%
02:00 +4°C° 0 mm 2 mps 747 mmHg 94%
03:00 +3°C° 0 mm 2 mps 748 mmHg 94%
04:00 +3°C° 0 mm 2 mps 748 mmHg 94%
05:00 +2°C° 0 mm 2 mps 748 mmHg 95%
06:00 +3°C° 0 mm 3 mps 748 mmHg 89%
07:00 +4°C° 0 mm 3 mps 749 mmHg 83%
08:00 +5°C° 0 mm 3 mps 749 mmHg 76%
09:00 +5°C° 0 mm 3 mps 749 mmHg 72%
10:00 +7°C° 0 mm 3 mps 750 mmHg 68%
11:00 +8°C° 0 mm 3 mps 750 mmHg 63%
12:00 +9°C° 0 mm 3 mps 750 mmHg 60%
13:00 +10°C° 0 mm 3 mps 750 mmHg 56%
14:00 +10°C° 0 mm 2 mps 749 mmHg 53%
15:00 +10°C° 0 mm 2 mps 749 mmHg 54%
16:00 +10°C° 0 mm 2 mps 749 mmHg 56%
17:00 +10°C° 0 mm 2 mps 749 mmHg 57%
18:00 +9°C° 0 mm 2 mps 749 mmHg 62%
19:00 +8°C° 0 mm 3 mps 749 mmHg 67%
20:00 +7°C° 0 mm 3 mps 749 mmHg 73%
21:00 +5°C° 0.3 mm 3 mps 749 mmHg 76%
22:00 +5°C° 0.3 mm 3 mps 748 mmHg 79%
23:00 +5°C° 0.3 mm 3 mps 748 mmHg 83%

Tomorrow, 18 April, Sunday

Time Temperature Precipitation Wind Pressure Humidity
00:00 +4°C° 1.4 mm 4 mps 748 mmHg 85%
01:00 +4°C° 1.4 mm 4 mps 747 mmHg 88%
02:00 +3°C° 1.4 mm 5 mps 747 mmHg 91%
03:00 +3°C° 2.9 mm 5 mps 746 mmHg 92%
04:00 +3°C° 2.9 mm 5 mps 746 mmHg 94%
05:00 +3°C° 2.9 mm 5 mps 745 mmHg 95%
06:00 +3°C° 2.5 mm 5 mps 745 mmHg 95%
07:00 +3°C° 2.5 mm 5 mps 745 mmHg 95%
08:00 +3°C° 2.5 mm 5 mps 745 mmHg 95%
09:00 +3°C° 1 mm 5 mps 746 mmHg 95%
10:00 +4°C° 1 mm 4 mps 746 mmHg 95%
11:00 +4°C° 1 mm 4 mps 746 mmHg 95%
12:00 +4°C° 0.7 mm 4 mps 746 mmHg 95%
13:00 +4°C° 0.7 mm 4 mps 747 mmHg 95%
14:00 +5°C° 0.7 mm 3 mps 747 mmHg 95%
15:00 +5°C° 0.4 mm 4 mps 747 mmHg 95%
16:00 +5°C° 0.4 mm 4 mps 747 mmHg 94%
17:00 +5°C° 0.4 mm 4 mps 747 mmHg 94%
18:00 +5°C° 0.2 mm 4 mps 747 mmHg 94%
19:00 +5°C° 0.2 mm 4 mps 748 mmHg 94%
20:00 +5°C° 0.2 mm 4 mps 748 mmHg 93%
21:00 +5°C° 0.1 mm 4 mps 748 mmHg 93%
22:00 +5°C° 0.1 mm 4 mps 748 mmHg 93%
23:00 +5°C° 0.1 mm 4 mps 748 mmHg 93%

Day after tomorrow, 19 April, Monday

Time Temperature Precipitation Wind Pressure Humidity
00:00 +5°C° 0.1 mm 4 mps 748 mmHg 93%
01:00 +5°C° 0.1 mm 4 mps 748 mmHg 93%
02:00 +5°C° 0.1 mm 4 mps 748 mmHg 93%
03:00 +4°C° 0 mm 4 mps 748 mmHg 93%
04:00 +4°C° 0 mm 4 mps 748 mmHg 93%
05:00 +4°C° 0 mm 3 mps 748 mmHg 93%
06:00 +4°C° 0 mm 4 mps 748 mmHg 91%
07:00 +5°C° 0 mm 4 mps 748 mmHg 90%
08:00 +5°C° 0 mm 4 mps 748 mmHg 88%
09:00 +5°C° 0 mm 4 mps 748 mmHg 89%
10:00 +5°C° 0 mm 4 mps 748 mmHg 89%
11:00 +5°C° 0 mm 4 mps 748 mmHg 90%
12:00 +7°C° 0.1 mm 3 mps 748 mmHg 88%
13:00 +7°C° 0.1 mm 3 mps 748 mmHg 87%
14:00 +8°C° 0.1 mm 2 mps 748 mmHg 85%
15:00 +9°C° 0.2 mm 2 mps 747 mmHg 81%
16:00 +9°C° 0.2 mm 2 mps 747 mmHg 78%
17:00 +10°C° 0.2 mm 2 mps 747 mmHg 74%
18:00 +9°C° 0.1 mm 2 mps 746 mmHg 79%
19:00 +7°C° 0.1 mm 2 mps 746 mmHg 84%
20:00 +6°C° 0.1 mm 2 mps 746 mmHg 89%
21:00 +6°C° 0 mm 2 mps 746 mmHg 91%
22:00 +6°C° 0 mm 2 mps 746 mmHg 92%
23:00 +5°C° 0 mm 3 mps 746 mmHg 94%

20 April, Tuesday

Time Temperature Precipitation Wind Pressure Humidity
00:00 +5°C° 0.1 mm 3 mps 745 mmHg 94%
01:00 +5°C° 0.1 mm 3 mps 745 mmHg 95%
02:00 +7°C° 0.1 mm 2 mps 745 mmHg 95%
03:00 +5°C° 0 mm 3 mps 744 mmHg 95%
04:00 +5°C° 0 mm 3 mps 744 mmHg 95%
05:00 +5°C° 0 mm 4 mps 744 mmHg 95%
06:00 +5°C° 0 mm 4 mps 743 mmHg 93%
07:00 +6°C° 0 mm 5 mps 743 mmHg 91%
08:00 +6°C° 0 mm 5 mps 743 mmHg 89%
09:00 +7°C° 0 mm 6 mps 742 mmHg 86%
10:00 +7°C° 0 mm 6 mps 742 mmHg 83%
11:00 +8°C° 0 mm 6 mps 741 mmHg 80%
12:00 +7°C° 0 mm 6 mps 740 mmHg 82%
13:00 +7°C° 0 mm 6 mps 739 mmHg 85%
14:00 +5°C° 0 mm 7 mps 739 mmHg 87%
15:00 +5°C° 0.1 mm 7 mps 738 mmHg 88%
16:00 +4°C° 0.1 mm 7 mps 737 mmHg 89%
17:00 +2°C° 0.1 mm 8 mps 736 mmHg 91%
18:00 +2°C° 0.3 mm 8 mps 736 mmHg 92%
19:00 +1°C° 0.3 mm 8 mps 735 mmHg 93%
20:00 +1°C° 0.3 mm 8 mps 735 mmHg 94%
21:00 +1°C° 0.4 mm 8 mps 735 mmHg 95%
22:00 0°C° 0.4 mm 8 mps 735 mmHg 95%
23:00 0°C° 0.4 mm 8 mps 735 mmHg 96%

21 April, Wednesday

Time Temperature Precipitation Wind Pressure Humidity
00:00 0°C° 0.2 mm 8 mps 735 mmHg 96%
01:00 0°C° 0.2 mm 8 mps 735 mmHg 95%
02:00 0°C° 0.2 mm 8 mps 736 mmHg 95%
03:00 +1°C° 0 mm 8 mps 736 mmHg 93%
04:00 +2°C° 0 mm 7 mps 737 mmHg 90%
05:00 +2°C° 0 mm 7 mps 737 mmHg 88%
06:00 +3°C° 0.1 mm 7 mps 738 mmHg 86%
07:00 +3°C° 0.1 mm 7 mps 739 mmHg 83%
08:00 +4°C° 0.1 mm 7 mps 740 mmHg 81%
09:00 +5°C° 0 mm 7 mps 740 mmHg 75%
10:00 +6°C° 0 mm 7 mps 741 mmHg 68%
11:00 +8°C° 0 mm 7 mps 742 mmHg 62%
12:00 +8°C° 0 mm 7 mps 743 mmHg 62%
13:00 +9°C° 0 mm 6 mps 743 mmHg 62%
14:00 +9°C° 0 mm 5 mps 744 mmHg 62%
15:00 +9°C° 0 mm 5 mps 744 mmHg 61%
16:00 +10°C° 0 mm 4 mps 745 mmHg 60%
17:00 +10°C° 0 mm 4 mps 745 mmHg 58%
18:00 +9°C° 0 mm 3 mps 746 mmHg 64%
19:00 +8°C° 0 mm 3 mps 747 mmHg 70%
20:00 +6°C° 0 mm 2 mps 747 mmHg 76%
21:00 +6°C° 0 mm 2 mps 747 mmHg 78%
22:00 +5°C° 0 mm 3 mps 748 mmHg 81%
23:00 +4°C° 0 mm 3 mps 748 mmHg 83%

22 April, Thursday

Time Temperature Precipitation Wind Pressure Humidity
00:00 +4°C° 0 mm 3 mps 748 mmHg 84%
01:00 +4°C° 0 mm 2 mps 749 mmHg 86%
02:00 +4°C° 0 mm 2 mps 749 mmHg 87%
03:00 +4°C° 0 mm 2 mps 749 mmHg 89%
04:00 +4°C° 0 mm 2 mps 749 mmHg 90%
05:00 +3°C° 0 mm 2 mps 750 mmHg 91%
06:00 +5°C° 0 mm 2 mps 750 mmHg 85%
07:00 +7°C° 0 mm 2 mps 750 mmHg 80%
08:00 +9°C° 0 mm 2 mps 750 mmHg 74%
09:00 +10°C° 0.1 mm 3 mps 750 mmHg 67%
10:00 +11°C° 0.1 mm 3 mps 750 mmHg 61%
11:00 +13°C° 0.1 mm 3 mps 750 mmHg 54%
12:00 +13°C° 0.1 mm 3 mps 750 mmHg 51%
13:00 +14°C° 0.1 mm 3 mps 750 mmHg 48%
14:00 +14°C° 0.1 mm 3 mps 750 mmHg 45%
15:00 +14°C° 0 mm 3 mps 750 mmHg 49%
16:00 +14°C° 0 mm 3 mps 750 mmHg 54%
17:00 +13°C° 0 mm 3 mps 750 mmHg 59%
18:00 +12°C° 0.1 mm 3 mps 750 mmHg 65%
19:00 +10°C° 0.1 mm 2 mps 750 mmHg 72%
20:00 +9°C° 0.1 mm 2 mps 750 mmHg 78%
21:00 +9°C° 0.1 mm 2 mps 749 mmHg 81%
22:00 +9°C° 0.1 mm 2 mps 749 mmHg 83%
23:00 +8°C° 0.1 mm 2 mps 749 mmHg 85%
Show more

We Need Your Consent

Meteoprog and our Service Providers may store and access personal data such as cookies, device identifiers or other similar technologies on your device and process such data to personalise content and ads, as well as provide social media features and to analyse the traffic.

  • Store and/or access information on your device

    Cookies, device identifiers or other information can be stored or accessed on your device for the purposes indicated above.

  • Personalised ads and content, ad and content measurement, audience insights, and products development

    Ads and content can be personalised based on a profile. More data can be added to better personalise ads and content. Ad and content performance can be measured. Insights about the audience who saw the ads and content can be derived. Such data can be used to develop or improve user’s experience, systems and software.

By clicking ‘I Agree’ you will allow the use of indicated cookies, device identifiers, web beacons or other similar technologies. Your settings can be changed in the browser on your device.

For certain purposes, legitimate interests may be relied on, rather than consent. You can read more about this in our Privacy and Cookie Policy.